TimeCDT,TemperatureF,Dew PointF,Humidity,Sea Level PressureIn,VisibilityMPH,Wind Direction,Wind SpeedMPH,Gust SpeedMPH,PrecipitationIn,Events,Conditions,WindDirDegrees,DateUTC
12:02 AM,39.2,39.2,100,30.21,0.2,Calm,Calm,-,N/A,Fog,Fog,0,2013-03-30 05:02:00
12:26 AM,42.8,42.8,100,30.21,1.0,Calm,Calm,-,N/A,,Mist,0,2013-03-30 05:26:00
12:34 AM,39.2,39.2,100,30.21,0.2,Calm,Calm,-,N/A,Fog,Fog,0,2013-03-30 05:34:00
12:53 AM,39.0,37.9,96,30.21,0.2,Calm,Calm,-,N/A,Fog,Fog,0,2013-03-30 05:53:00
1:51 AM,37.4,37.4,100,30.20,0.2,Calm,Calm,-,N/A,Fog,Fog,0,2013-03-30 06:51:00
1:53 AM,37.0,37.0,100,30.21,0.2,Calm,Calm,-,N/A,Fog,Fog,0,2013-03-30 06:53:00
2:18 AM,37.4,37.4,100,30.20,0.2,Calm,Calm,-,N/A,Fog,Fog,0,2013-03-30 07:18:00
2:53 AM,37.0,36.0,96,30.19,0.2,ENE,3.5,-,N/A,Fog,Fog,60,2013-03-30 07:53:00
3:53 AM,39.9,39.0,97,30.18,0.2,East,4.6,-,N/A,Fog,Fog,80,2013-03-30 08:53:00
4:33 AM,41.0,41.0,100,30.18,0.2,Calm,Calm,-,N/A,Fog,Fog,0,2013-03-30 09:33:00
4:53 AM,41.0,41.0,100,30.19,0.2,NNE,3.5,-,N/A,Fog,Fog,30,2013-03-30 09:53:00
5:53 AM,43.0,42.1,97,30.16,0.2,ENE,5.8,-,N/A,Fog,Fog,70,2013-03-30 10:53:00
6:11 AM,44.6,42.8,93,30.16,0.5,East,5.8,-,N/A,Fog,Fog,80,2013-03-30 11:11:00
6:31 AM,44.6,44.6,100,30.17,1.5,ESE,6.9,-,N/A,,Overcast,110,2013-03-30 11:31:00
6:42 AM,44.6,44.6,100,30.18,2.5,ESE,4.6,-,N/A,,Overcast,110,2013-03-30 11:42:00
6:53 AM,45.0,44.1,97,30.19,2.5,ESE,4.6,-,N/A,,Overcast,120,2013-03-30 11:53:00
7:32 AM,44.6,44.6,100,30.18,3.0,SE,5.8,-,N/A,,Overcast,130,2013-03-30 12:32:00
7:43 AM,44.6,44.6,100,30.17,3.0,ESE,6.9,-,N/A,,Overcast,110,2013-03-30 12:43:00
7:53 AM,45.0,44.1,97,30.17,3.0,ESE,6.9,-,N/A,,Overcast,110,2013-03-30 12:53:00
8:14 AM,46.4,44.6,93,30.17,2.5,SE,6.9,-,N/A,,Overcast,130,2013-03-30 13:14:00
8:24 AM,46.4,44.6,93,30.18,3.0,SE,5.8,-,N/A,,Overcast,130,2013-03-30 13:24:00
8:50 AM,46.4,44.6,93,30.17,2.5,ESE,6.9,-,N/A,,Overcast,110,2013-03-30 13:50:00
8:53 AM,45.0,44.1,97,30.17,2.0,ESE,5.8,-,N/A,,Overcast,110,2013-03-30 13:53:00
9:49 AM,46.4,44.6,93,30.16,3.0,East,5.8,-,N/A,,Overcast,100,2013-03-30 14:49:00
9:53 AM,46.0,45.0,96,30.16,2.5,East,5.8,-,N/A,,Overcast,80,2013-03-30 14:53:00
10:16 AM,46.4,44.6,93,30.15,3.0,East,6.9,-,N/A,,Overcast,90,2013-03-30 15:16:00
10:53 AM,48.0,45.0,89,30.15,3.0,SE,6.9,-,N/A,,Overcast,130,2013-03-30 15:53:00
11:53 AM,50.0,46.0,86,30.13,5.0,SSE,6.9,-,N/A,,Overcast,150,2013-03-30 16:53:00
12:18 PM,50.0,46.4,87,30.12,5.0,SSE,10.4,-,N/A,,Overcast,150,2013-03-30 17:18:00
12:53 PM,51.1,46.0,83,30.10,5.0,SSE,6.9,-,N/A,,Haze,150,2013-03-30 17:53:00
1:53 PM,51.1,46.0,83,30.07,5.0,SE,8.1,-,N/A,,Haze,140,2013-03-30 18:53:00
2:26 PM,51.8,46.4,82,30.05,5.0,SE,5.8,-,N/A,,Haze,140,2013-03-30 19:26:00
2:53 PM,52.0,46.9,83,30.05,5.0,SE,4.6,-,N/A,,Haze,140,2013-03-30 19:53:00
3:53 PM,52.0,48.0,86,30.01,5.0,SE,8.1,-,0.00,Rain,Light Rain,130,2013-03-30 20:53:00
4:04 PM,51.8,46.4,82,30.00,6.0,ESE,8.1,-,0.00,,Haze,120,2013-03-30 21:04:00
4:16 PM,51.8,46.4,82,30.00,6.0,ESE,8.1,-,0.00,,Haze,110,2013-03-30 21:16:00
4:42 PM,51.8,48.2,88,29.97,2.0,ESE,8.1,-,0.02,Rain,Rain,110,2013-03-30 21:42:00
4:53 PM,51.1,48.0,89,29.97,3.0,ESE,8.1,-,0.03,Rain,Rain,120,2013-03-30 21:53:00
5:24 PM,51.8,48.2,88,29.97,4.0,East,4.6,-,0.01,Rain,Light Rain,100,2013-03-30 22:24:00
5:53 PM,51.1,48.0,89,29.97,4.0,SE,5.8,-,0.01,Rain,Light Rain,130,2013-03-30 22:53:00
6:22 PM,51.8,48.2,88,29.97,3.0,SSE,4.6,-,0.00,Rain,Light Rain,150,2013-03-30 23:22:00
6:29 PM,50.0,48.2,94,29.96,2.5,SE,4.6,-,0.00,Rain,Rain,140,2013-03-30 23:29:00
6:53 PM,50.0,48.0,93,29.96,1.5,East,8.1,-,0.03,Rain,Rain,100,2013-03-30 23:53:00
7:04 PM,50.0,48.2,94,29.96,2.5,ESE,3.5,-,0.01,Rain,Light Rain,110,2013-03-31 00:04:00
7:39 PM,50.0,48.2,94,29.96,1.8,Calm,Calm,-,0.13,Rain,Rain,0,2013-03-31 00:39:00
7:53 PM,50.0,48.9,96,29.96,1.8,Calm,Calm,-,0.14,Rain,Light Rain,0,2013-03-31 00:53:00
8:19 PM,50.0,48.2,94,29.96,1.5,Calm,Calm,-,0.01,Rain,Light Rain,0,2013-03-31 01:19:00
8:53 PM,50.0,48.9,96,29.96,1.0,Calm,Calm,-,0.01,,Overcast,0,2013-03-31 01:53:00
9:16 PM,50.0,48.2,94,29.95,1.2,Calm,Calm,-,N/A,,Overcast,0,2013-03-31 02:16:00
9:25 PM,48.2,48.2,100,29.95,1.0,Calm,Calm,-,N/A,,Overcast,0,2013-03-31 02:25:00
9:48 PM,50.0,48.2,94,29.95,1.5,Calm,Calm,-,N/A,,Overcast,0,2013-03-31 02:48:00
9:53 PM,50.0,48.9,96,29.95,1.8,Calm,Calm,-,N/A,,Overcast,0,2013-03-31 02:53:00
10:24 PM,50.0,48.2,94,29.95,2.0,Calm,Calm,-,N/A,,Overcast,0,2013-03-31 03:24:00
10:50 PM,50.0,48.2,94,29.95,2.0,Calm,Calm,-,N/A,,Overcast,0,2013-03-31 03:50:00
10:53 PM,50.0,48.9,96,29.95,2.0,Calm,Calm,-,N/A,,Overcast,0,2013-03-31 03:53:00
11:09 PM,50.0,48.2,94,29.94,2.0,Calm,Calm,-,N/A,,Overcast,0,2013-03-31 04:09:00
11:27 PM,50.0,48.2,94,29.92,1.8,Calm,Calm,-,N/A,,Overcast,0,2013-03-31 04:27:00
11:37 PM,50.0,48.2,94,29.92,2.0,Calm,Calm,-,N/A,,Overcast,0,2013-03-31 04:37:00
11:42 PM,50.0,48.2,94,29.93,1.8,Calm,Calm,-,N/A,,Overcast,0,2013-03-31 04:42:00
11:53 PM,48.9,48.0,97,29.94,2.5,Calm,Calm,-,N/A,,Overcast,0,2013-03-31 04:53:00